EW6851 Barcellona Pozzo Di Gotto IT current weather conditions

sailwx.info

Wind from 128 at 2 knots gusting 2

Air temperature 14.4° C
Dewpoint 10.7° C

Last reported at 2019-Dec-09 17:06 UTC.
Time now 2019-Dec-09 18:07 UTC

Location: N 38°09' E 015°13'.
View on Google Maps.

See reports from other nearby stations

  
Tides and Currents Weather Stations Pressure Air Temp Water Temp Dewpoint Dewpoint Depression Visibility Wind Speed Wind Dir Waves Ship Positions
date/time (UTC)wind fromknots sea level pressurealtimeterstation pressurevisibilityair tempwater tempwave heightnotes
2019-Dec-09 17:06 128 2 gusting 2 14.4
2019-Dec-09 17:01 128 14.4
2019-Dec-09 16:56 128 1 gusting 4 15.0
2019-Dec-09 16:51 115 1 gusting 4 15.0
2019-Dec-09 16:46 203 0 gusting 1 15.0
2019-Dec-09 16:41 203 15.0
2019-Dec-09 16:36 203 15.6
2019-Dec-09 16:31 203 1 gusting 4 15.6
2019-Dec-09 16:26 190 15.6
2019-Dec-09 16:21 223 1 gusting 6 15.6
2019-Dec-09 16:16 215 0 gusting 5 15.6
2019-Dec-09 16:11 205 2 gusting 5 15.6
2019-Dec-09 16:06 230 1 gusting 4 15.6
2019-Dec-09 16:01 252 0 gusting 4 15.6
2019-Dec-09 15:56 254 15.6
2019-Dec-09 15:51 265 0 gusting 6 15.6
2019-Dec-09 15:46 236 5 gusting 9 15.6
2019-Dec-09 15:41 254 9 gusting 8 15.6
2019-Dec-09 15:36 263 0 gusting 7 15.6
2019-Dec-09 15:31 213 3 gusting 10 15.6
2019-Dec-09 15:26 233 0 gusting 10 15.6
2019-Dec-09 15:21 284 0 gusting 8 15.6
2019-Dec-09 15:16 250 3 gusting 7 15.6
2019-Dec-09 15:11 271 4 gusting 7 15.6
2019-Dec-09 15:06 274 6 gusting 9 15.6
2019-Dec-09 15:01 259 4 gusting 7 15.6
2019-Dec-09 14:56 252 4 gusting 7 15.6
2019-Dec-09 14:51 251 15.6
2019-Dec-09 14:46 295 0 gusting 10 16.1
2019-Dec-09 14:41 242 4 gusting 8 16.1
2019-Dec-09 14:36 287 1 gusting 8 16.1
2019-Dec-09 14:31 267 6 gusting 6 16.1
2019-Dec-09 14:26 249 3 gusting 6 16.1
2019-Dec-09 14:21 230 0 gusting 4 16.1
2019-Dec-09 14:16 264 2 gusting 6 16.1
2019-Dec-09 14:11 217 1 gusting 4 16.1
2019-Dec-09 14:06 225 16.1
2019-Dec-09 14:01 271 16.1
2019-Dec-09 13:56 238 16.1
2019-Dec-09 13:51 277 0 gusting 6 16.1
2019-Dec-09 13:46 267 4 gusting 7 16.1
2019-Dec-09 13:41 261 1 gusting 3 16.1
2019-Dec-09 13:36 261 2 gusting 6 16.1
2019-Dec-09 13:31 209 3 gusting 4 16.1
2019-Dec-09 13:26 268 2 gusting 6 16.1
2019-Dec-09 13:21 269 16.7
2019-Dec-09 13:16 279 3 gusting 4 16.7
2019-Dec-09 13:11 230 1 gusting 6 16.7
2019-Dec-09 13:06 267 2 gusting 6 16.7
2019-Dec-09 13:01 266 0 gusting 6 16.7
2019-Dec-09 12:56 229 3 gusting 6 16.7
2019-Dec-09 12:51 281 1 gusting 6 16.7
2019-Dec-09 12:46 282 2 gusting 6 16.7
2019-Dec-09 12:41 236 2 gusting 6 16.7
2019-Dec-09 12:36 277 3 gusting 6 16.7
2019-Dec-09 12:31 270 5 gusting 7 16.7
2019-Dec-09 12:26 283 4 gusting 6 17.2
2019-Dec-09 12:16 267 3 gusting 7 17.2
2019-Dec-09 12:12 306 2 gusting 6 17.8
2019-Dec-09 12:06 277 17.2
2019-Dec-09 12:02 219 4 gusting 6 17.2
2019-Dec-09 11:57 257 1 gusting 6 17.2
2019-Dec-09 11:51 248 0 gusting 8 17.2
2019-Dec-09 11:46 269 7 gusting 7 17.2
2019-Dec-09 11:41 254 17.2
2019-Dec-09 11:36 283 2 gusting 6 17.2
2019-Dec-09 11:32 266 2 gusting 7 17.2
2019-Dec-09 11:26 271 2 gusting 5 17.2
2019-Dec-09 11:22 295 3 gusting 4 17.2
2019-Dec-09 11:16 264 1 gusting 3 17.2
2019-Dec-09 11:12 234 16.7
2019-Dec-09 11:06 234 16.7
2019-Dec-09 11:01 234 3 gusting 4 16.7
2019-Dec-09 10:56 285 3 gusting 6 16.7
2019-Dec-09 10:51 278 3 gusting 4 16.7
2019-Dec-09 10:46 288 2 gusting 4 16.7
2019-Dec-09 10:41 289 0 gusting 5 16.7
2019-Dec-09 10:36 271 2 gusting 5 16.7
2019-Dec-09 10:31 308 0 gusting 3 16.1
2019-Dec-09 10:26 309 16.1
2019-Dec-09 10:21 052 1 gusting 2 16.1
2019-Dec-09 10:17 097 2 gusting 4 16.1
2019-Dec-09 10:11 096 16.1
2019-Dec-09 10:06 096 16.1
2019-Dec-09 10:02 096 15.6
2019-Dec-09 09:57 096 15.6
2019-Dec-09 09:51 096 15.6
2019-Dec-09 09:47 097 15.6
2019-Dec-09 09:41 097 15.0
2019-Dec-09 09:37 097 15.0
2019-Dec-09 09:31 097 15.0
2019-Dec-09 09:27 097 15.0
2019-Dec-09 09:22 096 15.0
2019-Dec-09 09:17 080 1 gusting 4 15.0
2019-Dec-09 09:11 080 2 gusting 4 15.0
2019-Dec-09 09:06 092 1 gusting 4 15.0
2019-Dec-09 09:01 117 0 gusting 3 15.0
2019-Dec-09 08:57 092 15.0
2019-Dec-09 08:51 097 15.0
2019-Dec-09 08:47 098 14.4
2019-Dec-09 08:42 096 14.4
2019-Dec-09 08:36 112 14.4
2019-Dec-09 08:31 112 14.4
2019-Dec-09 08:26 112 14.4
2019-Dec-09 08:22 112 14.4
2019-Dec-09 08:16 112 14.4
2019-Dec-09 08:11 112 14.4
2019-Dec-09 08:07 112 13.9
2019-Dec-09 08:02 112 13.9
2019-Dec-09 07:56 121 13.9
2019-Dec-09 07:51 107 0 gusting 2 13.9
2019-Dec-09 07:46 107 13.9
2019-Dec-09 07:41 107 13.9
2019-Dec-09 07:36 107 13.9
2019-Dec-09 07:32 106 0 gusting 4 13.9
2019-Dec-09 07:26 114 13.9
2019-Dec-09 07:21 114 0 gusting 4 13.3
2019-Dec-09 07:16 110 1 gusting 3 13.3
2019-Dec-09 07:11 106 0 gusting 2 13.3
2019-Dec-09 07:06 106 0 gusting 6 13.3
2019-Dec-09 07:01 119 0 gusting 6 13.3
2019-Dec-09 06:57 122 4 gusting 6 13.3
2019-Dec-09 06:52 128 0 gusting 2 13.3
2019-Dec-09 06:46 128 13.3
2019-Dec-09 06:41 128 1 gusting 2 13.3
2019-Dec-09 06:36 128 13.3
2019-Dec-09 06:31 130 0 gusting 2 13.3
2019-Dec-09 06:26 130 13.3
2019-Dec-09 06:22 130 13.3
2019-Dec-09 06:16 130 13.3
2019-Dec-09 06:11 112 0 gusting 4 12.8
2019-Dec-09 06:06 113 1 gusting 3 12.8
2019-Dec-09 06:01 098 1 gusting 2 12.8
2019-Dec-09 05:56 094 2 gusting 4 12.8
2019-Dec-09 05:51 094 12.8
2019-Dec-09 05:46 110 3 gusting 6 12.8
2019-Dec-09 05:41 128 3 gusting 6 12.8
2019-Dec-09 05:37 080 2 gusting 6 12.8
2019-Dec-09 05:32 119 0 gusting 6 12.8
2019-Dec-09 05:27 117 2 gusting 6 13.3
2019-Dec-09 05:21 119 1 gusting 4 13.3
2019-Dec-09 05:16 118 2 gusting 6 13.3
2019-Dec-09 05:11 117 3 gusting 4 13.3
2019-Dec-09 05:06 110 13.3
2019-Dec-09 05:02 109 13.3
2019-Dec-09 04:57 109 13.3
2019-Dec-09 04:52 117 13.3
2019-Dec-09 04:47 118 0 gusting 3 13.3
2019-Dec-09 04:41 118 0 gusting 2 13.3
2019-Dec-09 04:36 118 0 gusting 2 13.3
2019-Dec-09 04:31 118 1 gusting 2 13.3
2019-Dec-09 04:26 118 13.3
2019-Dec-09 04:21 116 13.3
2019-Dec-09 04:16 105 13.3
2019-Dec-09 04:11 105 13.3
2019-Dec-09 04:07 105 0 gusting 3 13.3
2019-Dec-09 04:01 105 13.3
2019-Dec-09 03:56 100 1 gusting 5 13.3
2019-Dec-09 03:51 115 1 gusting 3 13.3
2019-Dec-09 03:46 115 1 gusting 3 13.3
2019-Dec-09 03:42 115 2 gusting 4 13.3
2019-Dec-09 03:37 107 0 gusting 2 13.3
2019-Dec-09 03:32 107 13.3
2019-Dec-09 03:26 094 13.3
2019-Dec-09 03:21 127 13.3
2019-Dec-09 03:16 120 1 gusting 6 13.3
2019-Dec-09 03:11 128 4 gusting 5 13.3
2019-Dec-09 03:06 123 3 gusting 6 13.3
2019-Dec-09 03:01 132 12.8
2019-Dec-09 02:56 113 12.8
2019-Dec-09 02:51 120 12.8
2019-Dec-09 02:46 095 0 gusting 3 12.8
2019-Dec-09 02:41 109 0 gusting 3 12.8
2019-Dec-09 02:37 105 0 gusting 3 12.8
2019-Dec-09 02:31 104 12.8
2019-Dec-09 02:26 094 0 gusting 6 12.8
2019-Dec-09 02:21 120 12.8
2019-Dec-09 02:16 108 12.8
2019-Dec-09 02:11 104 12.8
2019-Dec-09 02:06 103 12.8
2019-Dec-09 02:01 119 1 gusting 7 12.8
2019-Dec-09 01:56 126 1 gusting 6 12.8
2019-Dec-09 01:51 108 12.8
2019-Dec-09 01:46 111 12.8
2019-Dec-09 01:41 115 0 gusting 6 12.8
2019-Dec-09 01:36 110 2 gusting 6 12.8
2019-Dec-09 01:31 110 12.8
2019-Dec-09 01:26 109 12.8
2019-Dec-09 01:21 119 2 gusting 5 12.8
2019-Dec-09 01:16 105 1 gusting 2 12.8
2019-Dec-09 01:11 112 12.8
2019-Dec-09 01:06 115 12.8
2019-Dec-09 01:01 115 1 gusting 2 12.8
2019-Dec-09 00:56 111 13.3
2019-Dec-09 00:51 111 13.3
2019-Dec-09 00:46 113 13.3
2019-Dec-09 00:41 113 13.3
2019-Dec-09 00:36 113 13.3
2019-Dec-09 00:31 113 13.3
2019-Dec-09 00:26 113 13.3
2019-Dec-09 00:21 113 0 gusting 0 13.3
2019-Dec-09 00:16 113 13.9
2019-Dec-09 00:11 113 13.9
2019-Dec-09 00:06 113 13.9
2019-Dec-09 00:01 113 13.9
2019-Dec-08 23:56 113 13.9
2019-Dec-08 23:51 112 13.9
2019-Dec-08 23:46 112 13.9
2019-Dec-08 23:42 112 1 gusting 1 13.9
2019-Dec-08 23:37 112 13.9
2019-Dec-08 23:31 112 13.9
2019-Dec-08 23:26 112 13.9
2019-Dec-08 23:21 112 13.9
2019-Dec-08 23:16 112 13.9
2019-Dec-08 23:11 112 13.9
2019-Dec-08 23:06 112 13.9
2019-Dec-08 23:02 112 13.9
2019-Dec-08 22:56 104 13.9
2019-Dec-08 22:51 104 13.9
2019-Dec-08 22:46 122 13.9
2019-Dec-08 22:41 100 13.9
2019-Dec-08 22:36 097 13.3
2019-Dec-08 22:31 105 2 gusting 4 13.3
2019-Dec-08 22:26 105 13.3
2019-Dec-08 22:21 108 13.3
2019-Dec-08 22:16 108 1 gusting 6 13.3
2019-Dec-08 22:11 104 3 gusting 5 13.3
2019-Dec-08 22:06 117 3 gusting 6 13.3
2019-Dec-08 22:01 107 3 gusting 6 13.3
2019-Dec-08 21:56 105 13.3
2019-Dec-08 21:51 092 1 gusting 6 13.9
2019-Dec-08 21:46 126 4 gusting 4 13.9
2019-Dec-08 21:41 110 13.9
2019-Dec-08 21:36 115 0 gusting 4 13.9
2019-Dec-08 21:31 113 13.9
2019-Dec-08 21:26 113 13.9
2019-Dec-08 21:21 113 2 gusting 3 13.9
2019-Dec-08 21:16 113 13.9
2019-Dec-08 21:11 106 13.9
2019-Dec-08 21:06 106 13.9
2019-Dec-08 21:01 106 2 gusting 6 13.9
2019-Dec-08 20:56 116 2 gusting 4 13.9
2019-Dec-08 20:51 095 0 gusting 2 13.9
2019-Dec-08 20:46 093 13.9
2019-Dec-08 20:41 106 13.9
2019-Dec-08 20:36 106 13.9
2019-Dec-08 20:31 106 13.9
2019-Dec-08 20:26 110 13.9
2019-Dec-08 20:21 110 13.9
2019-Dec-08 20:16 110 13.9
2019-Dec-08 20:11 110 13.3
2019-Dec-08 20:06 110 13.3
2019-Dec-08 20:01 110 13.3
2019-Dec-08 19:56 107 13.3
2019-Dec-08 19:52 113 13.3
2019-Dec-08 19:46 110 3 gusting 3 13.3
2019-Dec-08 19:41 103 13.3
2019-Dec-08 19:36 115 2 gusting 4 13.3
2019-Dec-08 19:31 111 0 gusting 4 13.3
2019-Dec-08 19:26 121 1 gusting 5 13.3
2019-Dec-08 19:21 111 2 gusting 4 13.3
2019-Dec-08 19:16 100 1 gusting 6 13.3
2019-Dec-08 19:11 074 13.3
2019-Dec-08 19:06 103 4 gusting 5 13.3
2019-Dec-08 19:01 111 1 gusting 6 13.3
2019-Dec-08 18:56 114 2 gusting 6 13.3
2019-Dec-08 18:51 117 3 gusting 5 13.3
2019-Dec-08 18:46 111 1 gusting 7 13.3
2019-Dec-08 18:41 119 2 gusting 6 13.3
2019-Dec-08 18:36 093 1 gusting 6 13.3
2019-Dec-08 18:31 108 1 gusting 6 13.3
2019-Dec-08 18:27 104 13.9
2019-Dec-08 18:21 103 2 gusting 6 13.9
2019-Dec-08 18:16 105 1 gusting 4 13.9
2019-Dec-08 18:11 105 2 gusting 6 13.9
2019-Dec-08 18:06 089 0 gusting 5 13.9
2019-Dec-08 18:01 100 4 gusting 4 13.9
2019-Dec-08 17:56 112 0 gusting 4 13.9
2019-Dec-08 17:51 117 4 gusting 6 13.9
2019-Dec-08 17:47 125 0 gusting 6 13.9
2019-Dec-08 17:42 103 2 gusting 4 14.4
2019-Dec-08 17:37 115 14.4
2019-Dec-08 17:31 116 14.4
2019-Dec-08 17:27 108 14.4
2019-Dec-08 17:21 090 1 gusting 2 14.4
2019-Dec-08 17:16 090 14.4
2019-Dec-08 17:12 123 3 gusting 5 14.4
2019-Dec-08 17:07 125 0 gusting 3 15.0
2019-Dec-08 17:02 126 1 gusting 6 15.0
2019-Dec-08 16:56 289 15.0
2019-Dec-08 16:51 298 3 gusting 3 15.0
2019-Dec-08 16:46 298 15.0
2019-Dec-08 16:41 298 15.0
2019-Dec-08 16:36 298 0 gusting 3 15.6
2019-Dec-08 16:32 298 1 gusting 4 15.6
2019-Dec-08 16:26 298 15.6
2019-Dec-08 16:22 298 15.6
2019-Dec-08 16:17 298 2 gusting 4 15.6
2019-Dec-08 16:11 298 4 gusting 5 16.1
2019-Dec-08 16:06 300 0 gusting 3 16.1
2019-Dec-08 16:01 300 0 gusting 1 16.1
2019-Dec-08 15:56 300 0 gusting 1 16.1
2019-Dec-08 15:52 300 0 gusting 2 16.1
2019-Dec-08 15:46 300 16.7
2019-Dec-08 15:41 300 16.7
2019-Dec-08 15:36 300 16.7
2019-Dec-08 15:32 300 16.7
2019-Dec-08 15:26 300 16.7
2019-Dec-08 15:21 300 16.7
2019-Dec-08 15:16 300 16.7
2019-Dec-08 15:12 300 1 gusting 3 17.2
2019-Dec-08 15:07 300 17.2
2019-Dec-08 15:02 300 1 gusting 2 17.2
2019-Dec-08 14:56 300 17.2
2019-Dec-08 14:52 300 0 gusting 5 17.2
2019-Dec-08 14:46 298 3 gusting 3 17.2
2019-Dec-08 14:41 298 17.8
2019-Dec-08 14:36 298 1 gusting 4 17.8
2019-Dec-08 14:31 298 0 gusting 4 17.8
2019-Dec-08 14:27 297 0 gusting 4 17.8
2019-Dec-08 14:21 297 3 gusting 5 18.3
2019-Dec-08 14:16 290 1 gusting 3 18.3
2019-Dec-08 14:11 290 2 gusting 3 18.3
2019-Dec-08 14:06 290 18.9
2019-Dec-08 14:01 288 18.9
2019-Dec-08 13:56 288 19.4
2019-Dec-08 13:52 288 0 gusting 1 19.4
2019-Dec-08 13:46 288 19.4
2019-Dec-08 13:41 288 19.4
2019-Dec-08 13:36 288 0 gusting 2 19.4
2019-Dec-08 13:31 288 1 gusting 3 19.4
2019-Dec-08 13:26 288 18.9
2019-Dec-08 13:22 288 18.9
2019-Dec-08 13:17 288 2 gusting 4 18.9
2019-Dec-08 13:12 292 4 gusting 5 18.3
2019-Dec-08 13:06 295 18.3
2019-Dec-08 13:01 295 0 gusting 5 18.3
2019-Dec-08 12:56 295 2 gusting 5 18.3
2019-Dec-08 12:51 295 0 gusting 4 18.3
2019-Dec-08 12:46 296 4 gusting 4 18.3
2019-Dec-08 12:41 296 3 gusting 5 18.3
2019-Dec-08 12:37 294 4 gusting 4 18.3
2019-Dec-08 12:32 289 2 gusting 5 18.3
2019-Dec-08 12:27 304 18.3
2019-Dec-08 12:22 300 2 gusting 4 18.3
2019-Dec-08 12:16 300 18.3
2019-Dec-08 12:12 300 18.9
2019-Dec-08 12:06 290 1 gusting 5 18.9
2019-Dec-08 12:02 279 1 gusting 5 18.9
2019-Dec-08 11:56 224 18.9
2019-Dec-08 11:52 311 0 gusting 4 18.9
2019-Dec-08 11:46 315 1 gusting 4 18.9
2019-Dec-08 11:41 292 18.9
2019-Dec-08 11:37 263 4 gusting 6 18.9
2019-Dec-08 11:31 244 1 gusting 6 18.9
2019-Dec-08 11:26 266 2 gusting 4 18.9
2019-Dec-08 11:21 331 3 gusting 4 18.9
2019-Dec-08 11:17 281 2 gusting 5 18.9
2019-Dec-08 11:11 286 2 gusting 3 18.9
2019-Dec-08 11:06 261 18.9
2019-Dec-08 11:01 282 18.9
2019-Dec-08 10:56 282 2 gusting 4 18.3
2019-Dec-08 10:51 282 3 gusting 5 18.9
2019-Dec-08 10:46 309 0 gusting 3 18.9
2019-Dec-08 10:41 275 18.3
2019-Dec-08 10:37 278 2 gusting 4 18.3
2019-Dec-08 10:31 311 1 gusting 3 18.3
2019-Dec-08 10:26 033 18.3
2019-Dec-08 10:21 033 0 gusting 2 18.3
2019-Dec-08 10:16 307 1 gusting 2 18.3
2019-Dec-08 10:11 044 18.3
2019-Dec-08 10:07 044 18.3
2019-Dec-08 10:02 044 17.8
2019-Dec-08 09:56 044 0 gusting 2 17.8
2019-Dec-08 09:51 046 2 gusting 2 17.8
2019-Dec-08 09:47 048 2 gusting 3 17.8
2019-Dec-08 09:41 059 17.8
2019-Dec-08 09:36 059 17.8
2019-Dec-08 09:31 059 18.3
2019-Dec-08 09:27 065 17.8
2019-Dec-08 09:21 067 0 gusting 2 17.8
2019-Dec-08 09:16 123 17.8
2019-Dec-08 09:11 123 17.8
2019-Dec-08 09:06 123 17.8
2019-Dec-08 09:02 123 17.8
2019-Dec-08 08:57 123 17.2
2019-Dec-08 08:51 123 16.7
2019-Dec-08 08:46 123 16.7
2019-Dec-08 08:41 123 1 gusting 1 16.7
2019-Dec-08 08:36 123 16.1
2019-Dec-08 08:31 123 16.1
2019-Dec-08 08:26 123 15.6
2019-Dec-08 08:21 123 15.6
2019-Dec-08 08:16 125 1 gusting 4 15.6
2019-Dec-08 08:11 119 15.0
2019-Dec-08 08:06 119 15.0
2019-Dec-08 08:01 120 14.4
2019-Dec-08 07:56 147 14.4
2019-Dec-08 07:52 147 0 gusting 1 13.9
2019-Dec-08 07:46 147 13.9
2019-Dec-08 07:41 147 13.3
2019-Dec-08 07:36 126 2 gusting 4 13.3
2019-Dec-08 07:32 118 3 gusting 4 13.3
2019-Dec-08 07:26 120 2 gusting 4 12.8
2019-Dec-08 07:21 110 1 gusting 6 12.8
2019-Dec-08 07:16 135 4 gusting 6 12.8
2019-Dec-08 07:12 109 0 gusting 3 12.8
2019-Dec-08 07:06 134 12.8
2019-Dec-08 07:02 134 0 gusting 3 12.8
2019-Dec-08 06:57 121 0 gusting 4 12.2
2019-Dec-08 06:51 138 0 gusting 6 12.2
2019-Dec-08 06:46 100 1 gusting 5 12.2
2019-Dec-08 06:41 132 0 gusting 2 12.2
2019-Dec-08 06:36 132 1 gusting 3 12.2
2019-Dec-08 06:31 136 2 gusting 5 12.2
2019-Dec-08 06:26 121 1 gusting 5 12.2
2019-Dec-08 06:21 120 2 gusting 6 12.2
2019-Dec-08 06:17 141 3 gusting 5 12.2
2019-Dec-08 06:11 146 1 gusting 3 12.2
2019-Dec-08 06:06 146 1 gusting 0 12.2
2019-Dec-08 06:01 146 12.2
2019-Dec-08 05:57 146 12.2
2019-Dec-08 05:51 146 2 gusting 5 12.2
2019-Dec-08 05:46 132 5 gusting 6 12.2
2019-Dec-08 05:41 125 2 gusting 5 12.2
2019-Dec-08 05:36 134 1 gusting 3 12.2
2019-Dec-08 05:32 148 1 gusting 6 12.2
2019-Dec-08 05:26 157 2 gusting 3 12.2
2019-Dec-08 05:21 159 3 gusting 6 12.2
2019-Dec-08 05:16 130 4 gusting 7 12.2
2019-Dec-08 05:11 121 4 gusting 6 12.2
2019-Dec-08 05:06 134 0 gusting 5 12.2
2019-Dec-08 05:01 111 3 gusting 6 12.2
2019-Dec-08 04:56 112 6 gusting 6 12.2
2019-Dec-08 04:51 108 1 gusting 6 12.2
2019-Dec-08 04:47 118 3 gusting 6 12.2
2019-Dec-08 04:42 119 1 gusting 3 12.2
2019-Dec-08 04:36 123 12.2
2019-Dec-08 04:31 123 12.2
2019-Dec-08 04:26 113 2 gusting 6 12.2
2019-Dec-08 04:21 109 1 gusting 5 12.2
2019-Dec-08 04:17 115 4 gusting 3 12.2
2019-Dec-08 04:11 113 1 gusting 6 12.2
2019-Dec-08 04:07 115 3 gusting 5 12.2
2019-Dec-08 04:01 112 1 gusting 2 12.2
2019-Dec-08 03:56 102 0 gusting 3 12.2
2019-Dec-08 03:51 112 12.2
2019-Dec-08 03:46 130 1 gusting 6 12.2
2019-Dec-08 03:42 119 1 gusting 6 12.2
2019-Dec-08 03:36 121 0 gusting 6 12.2
2019-Dec-08 03:31 131 4 gusting 8 12.2
2019-Dec-08 03:26 120 3 gusting 4 12.2
2019-Dec-08 03:21 097 12.2
2019-Dec-08 03:16 113 4 gusting 6 12.2
2019-Dec-08 03:11 134 4 gusting 5 12.2
2019-Dec-08 03:06 115 12.2
2019-Dec-08 03:01 106 1 gusting 6 12.2
2019-Dec-08 02:56 155 2 gusting 6 12.2
2019-Dec-08 02:51 134 12.2
2019-Dec-08 02:46 123 4 gusting 5 12.2
2019-Dec-08 02:41 112 4 gusting 6 12.2
2019-Dec-08 02:36 138 4 gusting 8 12.2
2019-Dec-08 02:31 123 1 gusting 7 12.2
2019-Dec-08 02:26 141 1 gusting 6 12.2
2019-Dec-08 02:21 107 2 gusting 6 12.2
2019-Dec-08 02:16 123 1 gusting 6 12.2
2019-Dec-08 02:11 129 3 gusting 5 12.2
2019-Dec-08 02:06 103 1 gusting 6 12.2
2019-Dec-08 02:01 121 0 gusting 4 12.2
2019-Dec-08 01:57 113 4 gusting 6 12.2
2019-Dec-08 01:51 115 1 gusting 6 12.2
2019-Dec-08 01:46 116 0 gusting 6 12.2
2019-Dec-08 01:41 123 1 gusting 6 12.2
2019-Dec-08 01:36 128 0 gusting 6 12.2
2019-Dec-08 01:31 132 1 gusting 3 12.2
2019-Dec-08 01:26 115 1 gusting 4 12.2
2019-Dec-08 01:21 122 2 gusting 6 12.2
2019-Dec-08 01:16 122 0 gusting 4 12.2
2019-Dec-08 01:11 103 2 gusting 4 12.2
2019-Dec-08 01:06 112 1 gusting 6 12.2
2019-Dec-08 01:01 118 2 gusting 6 12.2
2019-Dec-08 00:57 110 2 gusting 3 12.2
2019-Dec-08 00:51 115 1 gusting 4 12.2
2019-Dec-08 00:46 117 4 gusting 4 12.2
2019-Dec-08 00:41 113 12.2
2019-Dec-08 00:36 119 0 gusting 6 12.2
2019-Dec-08 00:31 121 4 gusting 6 12.2
2019-Dec-08 00:26 119 1 gusting 6 12.2
2019-Dec-08 00:21 097 2 gusting 5 12.2
2019-Dec-08 00:16 100 0 gusting 6 12.2
2019-Dec-08 00:12 111 12.2
2019-Dec-08 00:06 112 2 gusting 6 12.2
2019-Dec-08 00:01 104 0 gusting 6 12.2
2019-Dec-07 23:56 114 3 gusting 4 12.2
2019-Dec-07 23:51 119 12.2
2019-Dec-07 23:46 134 1 gusting 6 12.2
2019-Dec-07 23:41 122 6 gusting 6 12.2
2019-Dec-07 23:36 115 3 gusting 6 12.2
2019-Dec-07 23:31 144 3 gusting 5 12.2
2019-Dec-07 23:26 103 3 gusting 2 12.2
2019-Dec-07 23:21 121 12.2
2019-Dec-07 23:16 131 3 gusting 6 12.2
2019-Dec-07 23:11 104 0 gusting 6 12.2
2019-Dec-07 23:06 116 2 gusting 8 12.2
2019-Dec-07 23:01 113 3 gusting 5 12.8
2019-Dec-07 22:56 107 1 gusting 4 12.8
2019-Dec-07 22:51 130 12.8
2019-Dec-07 22:46 107 12.2
2019-Dec-07 22:41 107 1 gusting 6 12.2
2019-Dec-07 22:36 123 0 gusting 6 12.2
2019-Dec-07 22:31 109 3 gusting 6 12.2
2019-Dec-07 22:26 111 1 gusting 6 12.2
2019-Dec-07 22:21 105 2 gusting 4 12.2
2019-Dec-07 22:16 118 1 gusting 7 12.2
2019-Dec-07 22:11 117 4 gusting 7 12.2
2019-Dec-07 22:06 100 1 gusting 6 12.2
2019-Dec-07 22:01 094 2 gusting 5 12.8
2019-Dec-07 21:56 117 1 gusting 3 12.8
2019-Dec-07 21:51 095 1 gusting 4 12.8
2019-Dec-07 21:46 114 12.8
2019-Dec-07 21:41 089 1 gusting 5 12.8
2019-Dec-07 21:36 094 1 gusting 4 12.8
2019-Dec-07 21:31 129 12.8
2019-Dec-07 21:26 112 2 gusting 4 12.8
2019-Dec-07 21:21 126 2 gusting 4 12.8
2019-Dec-07 21:16 112 2 gusting 6 12.8
2019-Dec-07 21:11 098 1 gusting 4 12.8
2019-Dec-07 21:06 115 3 gusting 6 12.8
2019-Dec-07 21:01 111 1 gusting 6 12.8
2019-Dec-07 20:56 107 12.8
2019-Dec-07 20:51 109 1 gusting 6 12.8
2019-Dec-07 20:46 135 1 gusting 7 12.8
2019-Dec-07 20:41 113 1 gusting 4 12.8
2019-Dec-07 20:36 117 12.8
2019-Dec-07 20:31 126 0 gusting 6 12.8
2019-Dec-07 20:26 101 1 gusting 4 12.8
2019-Dec-07 20:21 124 2 gusting 5 12.8
2019-Dec-07 20:16 117 1 gusting 6 12.8
2019-Dec-07 20:11 103 4 gusting 6 12.8
2019-Dec-07 20:06 115 2 gusting 6 12.8
2019-Dec-07 20:01 115 3 gusting 6 12.8
2019-Dec-07 19:56 107 0 gusting 6 12.8
2019-Dec-07 19:51 096 0 gusting 6 12.8
2019-Dec-07 19:46 114 6 gusting 6 12.8
2019-Dec-07 19:41 100 12.8
2019-Dec-07 19:36 107 0 gusting 6 12.8
2019-Dec-07 19:31 122 0 gusting 6 12.8
2019-Dec-07 19:26 126 4 gusting 7 12.8
2019-Dec-07 19:21 121 2 gusting 7 12.8
2019-Dec-07 19:16 123 3 gusting 6 13.3
2019-Dec-07 19:11 101 0 gusting 5 13.3
2019-Dec-07 19:06 094 1 gusting 7 13.3
2019-Dec-07 19:01 121 1 gusting 7 13.3
2019-Dec-07 18:56 135 1 gusting 6 13.3
2019-Dec-07 18:51 133 1 gusting 7 13.3
2019-Dec-07 18:46 103 0 gusting 7 13.3
2019-Dec-07 18:41 132 1 gusting 6 13.3
2019-Dec-07 18:36 119 13.3
2019-Dec-07 18:31 115 0 gusting 6 13.3
2019-Dec-07 18:26 117 2 gusting 6 13.3
2019-Dec-07 18:21 111 13.3
2019-Dec-07 18:16 115 13.3
2019-Dec-07 18:11 119 1 gusting 3 13.3
2019-Dec-07 18:06 132 13.3
2019-Dec-07 18:01 132 1 gusting 2 13.3